KFMYKFXE

Guest
Details From KFMY - Page Fld
To KFXE - Fort Lauderdale Executive
Flight Number -
Tags decoded
Created
Modified
Stats Distance 100 nm / 185 km
Max Altitude 0 ft / 0 m
Waypoints 4
Social Downloads 2
Likes 0
Share VATSIM

Download

Looking for another format? Having issues loading an existing format? Contact us
Advertisement - Login to hide

Notes

Requested: KFMY FORTL KUBIC KFXE

Route

KFMY FORTL KUBIC KFXE

ID Type Via Altitude Latitude Longitude Leg Dist Tot Dist Heading (true) Name
O KFMY APT - 0 ft / 0 m 26.58672˚ -81.86316˚ - 0 nm - Page Fld
FORTL FIX - 0 ft / 0 m 26.30938˚ -81.35235˚ 32 nm 32 nm 121° / 121° -
KUBIC FIX - 0 ft / 0 m 26.09766˚ -80.94952˚ 25 nm 57 nm 120° / 120° -
O KFXE APT - 0 ft / 0 m 26.19698˚ -80.17044˚ 42 nm 99 nm 82° / 82° Fort Lauderdale Executive

Altitude Profile

Advertisement - Login to hide

KFMY

Details ICAO KFMY (FMY)
Name Page Fld
Region United States
Timezone America/New_York (UTC-4.0)
Stats Elevation 17 ft / 5 m (AMSL)
Location 26.586721° -81.863157°
Runways 2
Magnetic Variation 5.824° W

METAR

KFMY 210653Z AUTO 12005KT FEW080 BKN100 22/22 A3001 RMK AO2 SLP163 T02220217

Decode

TAF

TAF KFMY 210520Z 2106/2206 10003KT P6SM VCSH OVC080 FM211400 12009KT P6SM VCSH SCT025 OVC100 FM211800 12010KT 6SM SHRA VCTS SCT025CB OVC050 FM220100 10007KT P6SM VCSH SCT035 OVC100

Decode

Departure Runways

ID Width Length Bearing (true) Bearing (mag) Surface Threshold Offset Overrun Length
05 150 ft / 46 m 6,413 ft / 1,955 m 47.70° 53.52° Asphalt 459 ft / 140 m 0 ft / 0 m
13 150 ft / 46 m 4,915 ft / 1,498 m 130.63° 136.45° Asphalt 615 ft / 187 m 0 ft / 0 m
23 150 ft / 46 m 6,413 ft / 1,955 m 227.71° 233.53° Asphalt 399 ft / 122 m 0 ft / 0 m
31 150 ft / 46 m 4,915 ft / 1,498 m 310.64° 316.46° Asphalt 0 ft / 0 m 0 ft / 0 m

KFXE

Details ICAO KFXE (FXE)
Name Fort Lauderdale Executive
Region United States
Timezone America/New_York (UTC-4.0)
Stats Elevation 13 ft / 4 m (AMSL)
Location 26.196981° -80.170441°
Runways 2
Magnetic Variation 6.816° W

METAR

KFXE 210714Z AUTO 12009KT 10SM FEW019 BKN024 BKN029 25/24 A3001 RMK AO2 T02500239

Decode

TAF

KFXE 210547Z 2106/2206 12010KT P6SM SHRA SCT020 BKN035 OVC120 TEMPO 2106/2108 12015G25KT 4SM SHRA BKN017 FM211700 13015G21KT P6SM VCSH SCT020 BKN040 BKN120

Decode

Destination Runways

ID Width Length Bearing (true) Bearing (mag) Surface Threshold Offset Overrun Length
08 100 ft / 30 m 5,992 ft / 1,826 m 83.75° 90.57° Asphalt 0 ft / 0 m 0 ft / 0 m
13 100 ft / 30 m 4,002 ft / 1,220 m 128.95° 135.77° Asphalt 0 ft / 0 m 0 ft / 0 m
26 100 ft / 30 m 5,992 ft / 1,826 m 263.76° 270.58° Asphalt 0 ft / 0 m 0 ft / 0 m
31 100 ft / 30 m 4,002 ft / 1,220 m 308.95° 315.77° Asphalt 0 ft / 0 m 0 ft / 0 m

Approach Navaids

Runway Type Ident Frequency Range Bearing (true) Bearing (mag) Slope Elevation
08 Localiser IFXE 111.10 MHz 18 nm / 33 km 83.76° 90.58° - 9 ft / 3 m (AMSL)
08 Glidescope IFXE 111.10 MHz 10 nm / 19 km 83.76° 90.57° 3.00° 12 ft / 4 m (AMSL)